WZZ2PF EPWA-LEMH

Flight info

Callsign WZZ2PF
Flight time 2h 26m
Altitude 38000
Route EVINA DCT NAVUR DCT BAVOK DCT NAVTI DCT DETSA/N0438F370 DCT RENTA DCT UNTAD DCT PIDAD DCT TALEP DCT VAREK DCT GARPU DCT BALEN UT250 RIXOT
Aircraft A21N/M-SDE2E3FGHIRWXY/LB1

Departure

Time 2026-04-22 14:20
Airport Warsaw Chopin Airport (EPWA)

Arrival

Time 2026-04-22 16:46
Airport Menorca Airport (LEMH)
Time Latitude Longitude Altitude Speed Heading
2026-04-22 13:40 52.17093 20.96775 365 ft 0 kts 242°
2026-04-22 14:13 52.17093 20.96774 365 ft 0 kts 242°
2026-04-22 14:14 52.17090 20.96766 366 ft 1 kts 242°
2026-04-22 14:14 52.17084 20.96749 365 ft 2 kts 242°
2026-04-22 14:14 52.17072 20.96713 366 ft 4 kts 237°
2026-04-22 14:14 52.17037 20.96705 365 ft 9 kts 156°
2026-04-22 14:15 52.16969 20.96765 365 ft 11 kts 151°
2026-04-22 14:15 52.16896 20.96830 366 ft 12 kts 152°
2026-04-22 14:15 52.16819 20.96896 366 ft 12 kts 152°
2026-04-22 14:15 52.16739 20.96967 365 ft 13 kts 152°
2026-04-22 14:16 52.16661 20.97053 366 ft 13 kts 122°
2026-04-22 14:16 52.16622 20.97196 365 ft 14 kts 115°
2026-04-22 14:16 52.16581 20.97345 365 ft 14 kts 115°
2026-04-22 14:16 52.16538 20.97495 366 ft 14 kts 114°
2026-04-22 14:17 52.16495 20.97649 366 ft 15 kts 114°
2026-04-22 14:17 52.16458 20.97783 365 ft 9 kts 116°
2026-04-22 14:17 52.16403 20.97797 366 ft 9 kts 206°
2026-04-22 14:17 52.16340 20.97750 365 ft 10 kts 205°
2026-04-22 14:18 52.16300 20.97705 366 ft 4 kts 263°
2026-04-22 14:18 52.16310 20.97652 366 ft 5 kts 293°
2026-04-22 14:18 52.16311 20.97648 366 ft 0 kts 293°
2026-04-22 14:19 52.16316 20.97631 366 ft 7 kts 293°
2026-04-22 14:19 52.16454 20.97150 366 ft 85 kts 296°
2026-04-22 14:19 52.16798 20.95926 366 ft 148 kts 294°
2026-04-22 14:20 52.17701 20.92572 1484 ft 168 kts 296°
2026-04-22 14:20 52.18163 20.90893 2324 ft 163 kts 292°
2026-04-22 14:20 52.18261 20.89000 2697 ft 182 kts 267°
2026-04-22 14:21 52.17661 20.84605 3381 ft 217 kts 261°
2026-04-22 14:21 52.17294 20.82097 3660 ft 239 kts 261°
2026-04-22 14:22 52.16301 20.76574 4702 ft 271 kts 240°
2026-04-22 14:22 52.14868 20.74567 5449 ft 283 kts 207°
2026-04-22 14:22 52.11069 20.72797 7035 ft 291 kts 195°
2026-04-22 14:23 52.09126 20.71993 7820 ft 294 kts 197°
2026-04-22 14:23 52.07149 20.71101 8625 ft 297 kts 197°
2026-04-22 14:23 52.05154 20.70142 9371 ft 301 kts 198°
2026-04-22 14:23 52.03165 20.69148 10087 ft 306 kts 198°
2026-04-22 14:24 52.01104 20.68094 10681 ft 315 kts 198°
2026-04-22 14:24 51.98992 20.67003 11100 ft 329 kts 198°
2026-04-22 14:24 51.96795 20.65860 11728 ft 335 kts 198°
2026-04-22 14:24 51.94559 20.64695 12414 ft 339 kts 198°
2026-04-22 14:25 51.92325 20.63532 13069 ft 343 kts 198°
2026-04-22 14:25 51.90058 20.62352 13729 ft 347 kts 198°
2026-04-22 14:25 51.87743 20.61149 14354 ft 351 kts 197°
2026-04-22 14:25 51.85444 20.59953 14960 ft 355 kts 197°
2026-04-22 14:26 51.83057 20.58715 15586 ft 359 kts 197°
2026-04-22 14:26 51.80672 20.57479 16192 ft 362 kts 196°
2026-04-22 14:26 51.78274 20.56238 16771 ft 366 kts 196°
2026-04-22 14:26 51.75854 20.54986 17355 ft 369 kts 196°
2026-04-22 14:27 51.73419 20.53728 17924 ft 372 kts 195°
2026-04-22 14:27 51.70936 20.52446 18556 ft 373 kts 195°
2026-04-22 14:27 51.68474 20.51176 19172 ft 374 kts 195°
2026-04-22 14:27 51.65997 20.49901 19731 ft 376 kts 195°
2026-04-22 14:28 51.63515 20.48626 20258 ft 379 kts 194°
2026-04-22 14:28 51.61006 20.47339 20780 ft 382 kts 194°
2026-04-22 14:28 51.58455 20.46031 21302 ft 385 kts 194°
2026-04-22 14:28 51.55917 20.44733 21797 ft 388 kts 194°
2026-04-22 14:29 51.53346 20.43418 22277 ft 391 kts 194°
2026-04-22 14:29 51.50773 20.42103 22760 ft 393 kts 194°
2026-04-22 14:29 51.48139 20.40759 23241 ft 396 kts 193°
2026-04-22 14:29 51.45536 20.39432 23697 ft 398 kts 193°
2026-04-22 14:30 51.42888 20.38084 24164 ft 401 kts 193°
2026-04-22 14:30 51.40255 20.36625 24602 ft 406 kts 199°
2026-04-22 14:30 51.37706 20.34588 25030 ft 413 kts 207°
2026-04-22 14:30 51.35329 20.31994 25440 ft 418 kts 213°
2026-04-22 14:31 51.32999 20.29168 25839 ft 422 kts 214°
2026-04-22 14:31 51.30674 20.26302 26210 ft 424 kts 214°
2026-04-22 14:31 51.28350 20.23452 26590 ft 427 kts 214°
2026-04-22 14:31 51.25992 20.20584 26956 ft 430 kts 213°
2026-04-22 14:32 51.23603 20.17701 27298 ft 433 kts 213°
2026-04-22 14:32 51.21205 20.14820 27666 ft 435 kts 213°
2026-04-22 14:32 51.18785 20.11918 28026 ft 438 kts 213°
2026-04-22 14:32 51.16338 20.08991 28384 ft 440 kts 213°
2026-04-22 14:33 51.13891 20.06069 28736 ft 443 kts 213°
2026-04-22 14:33 51.11423 20.03130 29070 ft 446 kts 213°
2026-04-22 14:33 51.08952 20.00188 29389 ft 449 kts 213°
2026-04-22 14:33 51.06469 19.97237 29728 ft 451 kts 213°
2026-04-22 14:34 51.03949 19.94212 30062 ft 454 kts 214°
2026-04-22 14:34 51.01515 19.90980 30387 ft 458 kts 218°
2026-04-22 14:34 50.99219 19.87482 30702 ft 463 kts 223°
2026-04-22 14:34 50.97033 19.83725 31019 ft 466 kts 225°
2026-04-22 14:35 50.94867 19.79903 31317 ft 469 kts 225°
2026-04-22 14:35 50.92696 19.76072 31622 ft 470 kts 225°
2026-04-22 14:35 50.90527 19.72258 31939 ft 472 kts 225°
2026-04-22 14:35 50.88319 19.68396 32246 ft 473 kts 225°
2026-04-22 14:36 50.86090 19.64509 32548 ft 474 kts 225°
2026-04-22 14:36 50.83901 19.60702 32838 ft 475 kts 225°
2026-04-22 14:36 50.81659 19.56808 33140 ft 476 kts 225°
2026-04-22 14:36 50.79436 19.52954 33402 ft 477 kts 225°
2026-04-22 14:37 50.77228 19.49134 33625 ft 478 kts 226°
2026-04-22 14:37 50.74984 19.45258 33846 ft 479 kts 226°
2026-04-22 14:37 50.72729 19.41371 34075 ft 480 kts 226°
2026-04-22 14:37 50.70476 19.37488 34275 ft 481 kts 226°
2026-04-22 14:38 50.68212 19.33595 34486 ft 482 kts 225°
2026-04-22 14:38 50.65970 19.29746 34680 ft 482 kts 225°
2026-04-22 14:38 50.63693 19.25847 34956 ft 480 kts 225°
2026-04-22 14:38 50.61494 19.22085 35213 ft 478 kts 226°
2026-04-22 14:39 50.59217 19.18195 35468 ft 477 kts 226°
2026-04-22 14:39 50.56983 19.14382 35698 ft 476 kts 226°
2026-04-22 14:39 50.54734 19.10549 35907 ft 475 kts 226°
2026-04-22 14:40 50.51010 19.04217 36236 ft 475 kts 226°
2026-04-22 14:40 50.48032 18.99164 36484 ft 474 kts 226°
2026-04-22 14:40 50.45824 18.95426 36685 ft 473 kts 226°
2026-04-22 14:40 50.43590 18.91647 36867 ft 473 kts 226°
2026-04-22 14:41 50.41356 18.87875 37038 ft 473 kts 226°
2026-04-22 14:41 50.39122 18.84111 37221 ft 472 kts 227°
2026-04-22 14:41 50.36898 18.80366 37404 ft 472 kts 227°
2026-04-22 14:41 50.34669 18.76618 37582 ft 471 kts 227°
2026-04-22 14:42 50.32458 18.72905 37765 ft 470 kts 227°
2026-04-22 14:42 50.30209 18.69137 37939 ft 470 kts 227°
2026-04-22 14:42 50.28015 18.65465 38073 ft 470 kts 227°
2026-04-22 14:42 50.25774 18.61721 38165 ft 472 kts 227°
2026-04-22 14:43 50.21287 18.54240 38171 ft 472 kts 227°
2026-04-22 14:43 50.16817 18.46812 38167 ft 472 kts 227°
2026-04-22 14:44 50.12353 18.39414 38174 ft 471 kts 227°
2026-04-22 14:44 50.07885 18.32028 38179 ft 470 kts 226°
2026-04-22 14:45 50.03391 18.24629 38187 ft 470 kts 226°
2026-04-22 14:45 49.98916 18.17259 38193 ft 470 kts 227°
2026-04-22 14:46 49.94483 18.09820 38192 ft 471 kts 227°
2026-04-22 14:46 49.90059 18.02408 38197 ft 470 kts 227°
2026-04-22 14:47 49.85628 17.95020 38196 ft 469 kts 227°
2026-04-22 14:47 49.81183 17.87639 38195 ft 469 kts 227°
2026-04-22 14:48 49.76747 17.80298 38195 ft 470 kts 227°
2026-04-22 14:48 49.72281 17.72927 38185 ft 471 kts 227°
2026-04-22 14:49 49.67828 17.65600 38178 ft 472 kts 227°
2026-04-22 14:49 49.63349 17.58249 38173 ft 470 kts 227°
2026-04-22 14:50 49.58873 17.50924 38172 ft 470 kts 227°
2026-04-22 14:50 49.54403 17.43631 38168 ft 470 kts 227°
2026-04-22 14:51 49.49939 17.36369 38167 ft 471 kts 227°
2026-04-22 14:51 49.45428 17.29051 38164 ft 471 kts 226°
2026-04-22 14:52 49.40945 17.21801 38166 ft 470 kts 227°
2026-04-22 14:52 49.36440 17.14532 38162 ft 470 kts 227°
2026-04-22 14:53 49.31964 17.07332 38162 ft 470 kts 227°
2026-04-22 14:53 49.27461 17.00108 38168 ft 471 kts 227°
2026-04-22 14:54 49.22949 16.92892 38165 ft 471 kts 227°
2026-04-22 14:54 49.18429 16.85686 38169 ft 470 kts 227°
2026-04-22 14:55 49.13914 16.78506 38171 ft 470 kts 227°
2026-04-22 14:55 49.09417 16.71373 38175 ft 470 kts 227°
2026-04-22 14:56 49.04889 16.64213 38179 ft 470 kts 227°
2026-04-22 14:56 49.00380 16.57100 38182 ft 470 kts 227°
2026-04-22 14:57 48.95825 16.49939 38183 ft 471 kts 227°
2026-04-22 14:57 48.91301 16.42846 38183 ft 470 kts 227°
2026-04-22 14:58 48.86740 16.35719 38179 ft 470 kts 227°
2026-04-22 14:58 48.82190 16.28624 38182 ft 469 kts 226°
2026-04-22 14:59 48.77735 16.21498 38179 ft 469 kts 230°
2026-04-22 14:59 48.73763 16.13698 38186 ft 468 kts 236°
2026-04-22 15:00 48.70026 16.05673 38194 ft 467 kts 237°
2026-04-22 15:00 48.66283 15.97665 38186 ft 467 kts 236°
2026-04-22 15:01 48.62537 15.89694 38194 ft 467 kts 236°
2026-04-22 15:01 48.58794 15.81761 38199 ft 467 kts 236°
2026-04-22 15:02 48.55024 15.73798 38184 ft 467 kts 236°
2026-04-22 15:02 48.51266 15.65883 38198 ft 466 kts 237°
2026-04-22 15:03 48.47514 15.58004 38198 ft 466 kts 237°
2026-04-22 15:03 48.43746 15.50114 38201 ft 466 kts 237°
2026-04-22 15:04 48.39962 15.42215 38194 ft 465 kts 237°
2026-04-22 15:04 48.36198 15.34378 38195 ft 465 kts 236°
2026-04-22 15:05 48.32400 15.26495 38202 ft 465 kts 236°
2026-04-22 15:05 48.28620 15.18671 38203 ft 465 kts 236°
2026-04-22 15:06 48.24838 15.10867 38210 ft 465 kts 236°
2026-04-22 15:06 48.21024 15.03020 38211 ft 465 kts 236°
2026-04-22 15:07 48.17226 14.95227 38211 ft 465 kts 236°
2026-04-22 15:07 48.13423 14.87444 38221 ft 465 kts 236°
2026-04-22 15:08 48.09608 14.79658 38206 ft 465 kts 236°
2026-04-22 15:08 48.05807 14.71926 38210 ft 463 kts 236°
2026-04-22 15:09 48.02017 14.64238 38218 ft 463 kts 236°
2026-04-22 15:09 47.98208 14.56534 38211 ft 463 kts 236°
2026-04-22 15:10 47.94392 14.48839 38202 ft 463 kts 237°
2026-04-22 15:10 47.90559 14.41126 38204 ft 463 kts 236°
2026-04-22 15:11 47.86744 14.33471 38205 ft 463 kts 236°
2026-04-22 15:11 47.82897 14.25780 38198 ft 463 kts 236°
2026-04-22 15:12 47.79053 14.18114 38195 ft 462 kts 236°
2026-04-22 15:12 47.75239 14.10528 38186 ft 462 kts 236°
2026-04-22 15:13 47.71402 14.02918 38179 ft 462 kts 236°
2026-04-22 15:13 47.67571 13.95338 38172 ft 462 kts 236°
2026-04-22 15:14 47.63708 13.87719 38160 ft 462 kts 236°
2026-04-22 15:14 47.59852 13.80135 38145 ft 462 kts 236°
2026-04-22 15:15 47.56002 13.72585 38128 ft 461 kts 236°
2026-04-22 15:15 47.52145 13.65042 38117 ft 461 kts 236°
2026-04-22 15:16 47.48289 13.57519 38115 ft 461 kts 236°
2026-04-22 15:16 47.44422 13.49993 38138 ft 461 kts 236°
2026-04-22 15:17 47.40562 13.42505 38140 ft 460 kts 236°
2026-04-22 15:17 47.36686 13.35008 38137 ft 460 kts 236°
2026-04-22 15:18 47.32811 13.27530 38134 ft 461 kts 236°
2026-04-22 15:18 47.28923 13.20046 38134 ft 460 kts 236°
2026-04-22 15:19 47.25042 13.12597 38146 ft 461 kts 236°
2026-04-22 15:19 47.21151 13.05152 38164 ft 461 kts 236°
2026-04-22 15:20 47.17265 12.97736 38173 ft 460 kts 236°
2026-04-22 15:20 47.13411 12.90405 38156 ft 460 kts 236°
2026-04-22 15:21 47.09526 12.83032 38137 ft 459 kts 236°
2026-04-22 15:21 47.05638 12.75666 38117 ft 458 kts 236°
2026-04-22 15:22 47.01744 12.68314 38110 ft 457 kts 236°
2026-04-22 15:22 46.97857 12.60992 38133 ft 458 kts 236°
2026-04-22 15:23 46.93938 12.53637 38179 ft 458 kts 236°
2026-04-22 15:23 46.90025 12.46311 38208 ft 458 kts 236°
2026-04-22 15:24 46.86097 12.38982 38196 ft 457 kts 236°
2026-04-22 15:24 46.82219 12.31636 38174 ft 455 kts 238°
2026-04-22 15:25 46.78869 12.23916 38186 ft 451 kts 245°
2026-04-22 15:25 46.76041 12.15816 38194 ft 449 kts 248°
2026-04-22 15:26 46.73262 12.07685 37990 ft 451 kts 248°
2026-04-22 15:26 46.71854 12.03585 37781 ft 453 kts 248°
2026-04-22 15:26 46.70438 11.99468 37568 ft 453 kts 248°
2026-04-22 15:27 46.69042 11.95421 37360 ft 453 kts 248°
2026-04-22 15:27 46.67619 11.91306 37207 ft 452 kts 248°
2026-04-22 15:27 46.64791 11.83150 37189 ft 452 kts 248°
2026-04-22 15:28 46.61974 11.75044 37175 ft 451 kts 248°
2026-04-22 15:28 46.58567 11.67351 37159 ft 460 kts 233°
2026-04-22 15:29 46.53672 11.61352 37162 ft 468 kts 219°
2026-04-22 15:30 46.46515 11.54236 37176 ft 469 kts 219°
2026-04-22 15:30 46.40265 11.48016 37177 ft 467 kts 219°
2026-04-22 15:31 46.34943 11.42699 37173 ft 467 kts 219°
2026-04-22 15:31 46.29591 11.37354 37164 ft 467 kts 220°
2026-04-22 15:32 46.24276 11.32056 37160 ft 466 kts 219°
2026-04-22 15:32 46.18949 11.26756 37153 ft 466 kts 219°
2026-04-22 15:33 46.13639 11.21487 37160 ft 466 kts 219°
2026-04-22 15:33 46.08321 11.16222 37152 ft 466 kts 219°
2026-04-22 15:34 46.02978 11.10944 37142 ft 464 kts 219°
2026-04-22 15:34 45.97684 11.05730 37149 ft 463 kts 219°
2026-04-22 15:35 45.93287 11.01407 37143 ft 462 kts 220°
2026-04-22 15:35 45.87094 10.95334 37141 ft 462 kts 220°
2026-04-22 15:36 45.81791 10.90143 37152 ft 462 kts 220°
2026-04-22 15:36 45.76490 10.84971 37154 ft 461 kts 220°
2026-04-22 15:37 45.71190 10.79806 37159 ft 460 kts 220°
2026-04-22 15:37 45.68553 10.77244 37058 ft 461 kts 220°
2026-04-22 15:37 45.65887 10.74656 37112 ft 462 kts 220°
2026-04-22 15:38 45.60589 10.69520 37163 ft 463 kts 220°
2026-04-22 15:38 45.52647 10.61846 37169 ft 460 kts 220°
2026-04-22 15:39 45.47373 10.56766 37187 ft 459 kts 221°
2026-04-22 15:39 45.42087 10.51682 37171 ft 460 kts 221°
2026-04-22 15:40 45.36786 10.46597 37165 ft 459 kts 221°
2026-04-22 15:40 45.31523 10.41562 37187 ft 458 kts 221°
2026-04-22 15:41 45.26264 10.36540 37169 ft 457 kts 221°
2026-04-22 15:41 45.20996 10.31521 37176 ft 457 kts 221°
2026-04-22 15:42 45.15707 10.26491 37197 ft 457 kts 221°
2026-04-22 15:42 45.10424 10.21482 37181 ft 456 kts 221°
2026-04-22 15:43 45.05183 10.16521 37181 ft 456 kts 221°
2026-04-22 15:43 44.99921 10.11556 37183 ft 455 kts 221°
2026-04-22 15:44 44.94698 10.06635 37172 ft 453 kts 221°
2026-04-22 15:44 44.89450 10.01701 37175 ft 454 kts 221°
2026-04-22 15:45 44.84203 9.96776 37184 ft 454 kts 221°
2026-04-22 15:45 44.78943 9.91857 37164 ft 453 kts 222°
2026-04-22 15:46 44.73718 9.86980 37173 ft 451 kts 222°
2026-04-22 15:46 44.68523 9.82138 37150 ft 452 kts 222°
2026-04-22 15:47 44.63300 9.77280 37147 ft 451 kts 222°
2026-04-22 15:47 44.58075 9.72438 37133 ft 450 kts 222°
2026-04-22 15:48 44.52891 9.67639 37125 ft 449 kts 222°
2026-04-22 15:48 44.47696 9.62839 37119 ft 448 kts 221°
2026-04-22 15:49 44.42489 9.58040 37110 ft 449 kts 221°
2026-04-22 15:49 44.37295 9.53265 37110 ft 449 kts 221°
2026-04-22 15:50 44.32078 9.48477 37111 ft 449 kts 221°
2026-04-22 15:50 44.26910 9.43747 37116 ft 448 kts 221°
2026-04-22 15:51 44.21689 9.38975 37104 ft 447 kts 221°
2026-04-22 15:51 44.16493 9.34240 37106 ft 448 kts 220°
2026-04-22 15:52 44.11280 9.29498 37096 ft 447 kts 220°
2026-04-22 15:52 44.06096 9.24791 37100 ft 447 kts 220°
2026-04-22 15:53 44.00910 9.20094 37108 ft 447 kts 220°
2026-04-22 15:53 43.95732 9.15415 37102 ft 447 kts 220°
2026-04-22 15:54 43.90514 9.10707 37118 ft 447 kts 220°
2026-04-22 15:54 43.85312 9.06024 37098 ft 446 kts 220°
2026-04-22 15:55 43.80123 9.01368 37105 ft 447 kts 220°
2026-04-22 15:55 43.74924 8.96707 37104 ft 445 kts 220°
2026-04-22 15:56 43.69716 8.92050 37105 ft 447 kts 220°
2026-04-22 15:56 43.64502 8.87398 37098 ft 446 kts 220°
2026-04-22 15:57 43.59300 8.82769 37090 ft 447 kts 220°
2026-04-22 15:57 43.54102 8.78154 37088 ft 447 kts 220°
2026-04-22 15:58 43.48873 8.73524 37087 ft 447 kts 219°
2026-04-22 15:58 43.43411 8.69345 37083 ft 454 kts 212°
2026-04-22 15:59 43.37732 8.65666 37080 ft 454 kts 212°
2026-04-22 15:59 43.32018 8.61973 37087 ft 455 kts 212°
2026-04-22 16:00 43.26288 8.58275 37091 ft 454 kts 212°
2026-04-22 16:00 43.20581 8.54598 37093 ft 455 kts 212°
2026-04-22 16:01 43.14886 8.50935 37087 ft 455 kts 212°
2026-04-22 16:01 43.09172 8.47265 37080 ft 455 kts 211°
2026-04-22 16:02 43.03456 8.43605 37088 ft 454 kts 211°
2026-04-22 16:02 42.97760 8.39964 37090 ft 455 kts 212°
2026-04-22 16:03 42.92015 8.36300 37089 ft 454 kts 212°
2026-04-22 16:03 42.86314 8.32668 37079 ft 456 kts 211°
2026-04-22 16:04 42.80577 8.29023 37077 ft 455 kts 211°
2026-04-22 16:04 42.74840 8.25388 37070 ft 456 kts 210°
2026-04-22 16:05 42.69103 8.21757 37069 ft 455 kts 210°
2026-04-22 16:05 42.63380 8.18145 37073 ft 456 kts 210°
2026-04-22 16:06 42.57655 8.14539 37057 ft 455 kts 210°
2026-04-22 16:06 42.51879 8.10908 37056 ft 456 kts 210°
2026-04-22 16:07 42.46143 8.07312 37049 ft 457 kts 210°
2026-04-22 16:07 42.40396 8.03720 37049 ft 456 kts 210°
2026-04-22 16:08 42.34692 8.00038 37042 ft 454 kts 213°
2026-04-22 16:08 42.29322 7.95663 37027 ft 449 kts 220°
2026-04-22 16:09 42.24376 7.90584 37034 ft 447 kts 224°
2026-04-22 16:09 42.19559 7.85389 37041 ft 447 kts 224°
2026-04-22 16:10 42.14714 7.80184 37036 ft 447 kts 224°
2026-04-22 16:10 42.09829 7.74945 37037 ft 447 kts 224°
2026-04-22 16:11 42.04987 7.69774 37033 ft 447 kts 224°
2026-04-22 16:11 42.00117 7.64579 37032 ft 448 kts 224°
2026-04-22 16:12 41.95308 7.59314 37012 ft 445 kts 229°
2026-04-22 16:12 41.91542 7.52913 37029 ft 437 kts 241°
2026-04-22 16:13 41.88141 7.46126 37017 ft 436 kts 241°
2026-04-22 16:13 41.84755 7.39417 37016 ft 437 kts 241°
2026-04-22 16:14 41.81331 7.32687 37019 ft 438 kts 240°
2026-04-22 16:14 41.77891 7.25967 37013 ft 439 kts 240°
2026-04-22 16:15 41.74458 7.19279 37013 ft 439 kts 240°
2026-04-22 16:15 41.71005 7.12567 37019 ft 439 kts 240°
2026-04-22 16:16 41.67560 7.05889 37015 ft 439 kts 240°
2026-04-22 16:16 41.64083 6.99163 37011 ft 439 kts 240°
2026-04-22 16:17 41.60628 6.92498 37015 ft 439 kts 240°
2026-04-22 16:17 41.57144 6.85786 37003 ft 440 kts 240°
2026-04-22 16:18 41.53675 6.79117 37007 ft 439 kts 240°
2026-04-22 16:18 41.50209 6.72474 37013 ft 439 kts 240°
2026-04-22 16:19 41.46728 6.65809 37001 ft 438 kts 240°
2026-04-22 16:19 41.43225 6.59124 37004 ft 438 kts 240°
2026-04-22 16:20 41.39738 6.52482 37002 ft 438 kts 240°
2026-04-22 16:20 41.37991 6.49160 37289 ft 439 kts 240°
2026-04-22 16:20 41.36235 6.45821 37101 ft 437 kts 239°
2026-04-22 16:21 41.32765 6.39240 37009 ft 437 kts 240°
2026-04-22 16:21 41.29277 6.32641 37003 ft 437 kts 239°
2026-04-22 16:22 41.25786 6.26048 36833 ft 438 kts 239°
2026-04-22 16:22 41.24048 6.22769 36474 ft 435 kts 239°
2026-04-22 16:22 41.22311 6.19501 35967 ft 433 kts 239°
2026-04-22 16:23 41.18863 6.13012 34759 ft 429 kts 239°
2026-04-22 16:23 41.17163 6.09821 34309 ft 424 kts 239°
2026-04-22 16:23 41.15464 6.06636 33948 ft 422 kts 239°
2026-04-22 16:24 41.13774 6.03471 33539 ft 419 kts 239°
2026-04-22 16:24 41.10452 5.97256 32664 ft 413 kts 239°
2026-04-22 16:24 41.08780 5.94138 32227 ft 410 kts 239°
2026-04-22 16:25 41.07153 5.91100 31780 ft 407 kts 239°
2026-04-22 16:25 41.03674 5.84779 30778 ft 442 kts 236°
2026-04-22 16:25 41.01783 5.81620 30120 ft 442 kts 236°
2026-04-22 16:26 40.99853 5.78439 29441 ft 439 kts 235°
2026-04-22 16:26 40.97984 5.75363 28910 ft 433 kts 235°
2026-04-22 16:26 40.96095 5.72249 28343 ft 429 kts 236°
2026-04-22 16:26 40.94262 5.69222 27751 ft 424 kts 236°
2026-04-22 16:27 40.92433 5.66200 27169 ft 420 kts 236°
2026-04-22 16:27 40.90614 5.63189 26503 ft 418 kts 236°
2026-04-22 16:27 40.88818 5.60219 25999 ft 413 kts 236°
2026-04-22 16:27 40.87046 5.57293 25476 ft 410 kts 236°
2026-04-22 16:28 40.85260 5.54342 24956 ft 407 kts 236°
2026-04-22 16:28 40.83519 5.51469 24429 ft 404 kts 236°
2026-04-22 16:28 40.81781 5.48604 23858 ft 401 kts 236°
2026-04-22 16:28 40.80042 5.45738 23285 ft 398 kts 236°
2026-04-22 16:29 40.78318 5.42903 22715 ft 394 kts 236°
2026-04-22 16:29 40.76629 5.40127 22159 ft 391 kts 236°
2026-04-22 16:29 40.74923 5.37324 21589 ft 388 kts 236°
2026-04-22 16:29 40.73260 5.34596 21037 ft 385 kts 235°
2026-04-22 16:30 40.72145 5.32768 20664 ft 383 kts 235°
2026-04-22 16:30 40.69935 5.29144 19922 ft 380 kts 235°
2026-04-22 16:30 40.68273 5.26423 19361 ft 377 kts 235°
2026-04-22 16:30 40.66657 5.23780 18817 ft 375 kts 235°
2026-04-22 16:31 40.65026 5.21117 18262 ft 372 kts 235°
2026-04-22 16:31 40.63410 5.18477 17709 ft 370 kts 235°
2026-04-22 16:31 40.61803 5.15856 17164 ft 368 kts 235°
2026-04-22 16:31 40.60203 5.13248 16615 ft 365 kts 235°
2026-04-22 16:32 40.58632 5.10689 16075 ft 363 kts 235°
2026-04-22 16:32 40.57051 5.08116 15531 ft 362 kts 235°
2026-04-22 16:32 40.55479 5.05560 14984 ft 360 kts 235°
2026-04-22 16:32 40.53901 5.02997 14435 ft 358 kts 235°
2026-04-22 16:33 40.52342 5.00467 13886 ft 356 kts 235°
2026-04-22 16:33 40.50813 4.97987 13349 ft 354 kts 235°
2026-04-22 16:33 40.49266 4.95481 12798 ft 352 kts 235°
2026-04-22 16:33 40.47715 4.92968 12241 ft 351 kts 235°
2026-04-22 16:34 40.46199 4.90516 11695 ft 349 kts 235°
2026-04-22 16:34 40.44680 4.88059 11156 ft 348 kts 235°
2026-04-22 16:34 40.43147 4.85583 10600 ft 346 kts 235°
2026-04-22 16:34 40.41642 4.83157 10061 ft 345 kts 235°
2026-04-22 16:35 40.40148 4.80748 9522 ft 343 kts 235°
2026-04-22 16:35 40.38652 4.78335 8977 ft 339 kts 235°
2026-04-22 16:35 40.37182 4.75970 8505 ft 329 kts 234°
2026-04-22 16:35 40.35760 4.73684 8246 ft 318 kts 234°
2026-04-22 16:36 40.34388 4.71482 8026 ft 307 kts 234°
2026-04-22 16:36 40.33062 4.69354 7805 ft 298 kts 234°
2026-04-22 16:36 40.31778 4.67293 7575 ft 289 kts 234°
2026-04-22 16:36 40.30520 4.65271 7333 ft 280 kts 234°
2026-04-22 16:37 40.29310 4.63329 7118 ft 277 kts 234°
2026-04-22 16:37 40.28091 4.61373 6892 ft 277 kts 234°
2026-04-22 16:37 40.26867 4.59409 6670 ft 276 kts 234°
2026-04-22 16:37 40.25658 4.57474 6444 ft 275 kts 234°
2026-04-22 16:38 40.24453 4.55548 6252 ft 273 kts 234°
2026-04-22 16:38 40.23254 4.53632 6058 ft 272 kts 233°
2026-04-22 16:38 40.22068 4.51736 5863 ft 271 kts 233°
2026-04-22 16:38 40.20871 4.49824 5662 ft 271 kts 233°
2026-04-22 16:39 40.19687 4.47934 5461 ft 270 kts 233°
2026-04-22 16:39 40.18493 4.46032 5257 ft 270 kts 233°
2026-04-22 16:39 40.17303 4.44134 5064 ft 269 kts 233°
2026-04-22 16:39 40.16121 4.42252 4867 ft 268 kts 233°
2026-04-22 16:40 40.14946 4.40383 4672 ft 266 kts 233°
2026-04-22 16:40 40.13780 4.38530 4464 ft 258 kts 233°
2026-04-22 16:40 40.11573 4.35027 4102 ft 242 kts 232°
2026-04-22 16:41 40.10517 4.33352 3916 ft 235 kts 232°
2026-04-22 16:41 40.09493 4.31726 3738 ft 233 kts 232°
2026-04-22 16:41 40.08464 4.30092 3568 ft 233 kts 232°
2026-04-22 16:41 40.07446 4.28475 3414 ft 232 kts 231°
2026-04-22 16:42 40.06351 4.26938 3243 ft 228 kts 216°
2026-04-22 16:42 40.04934 4.26101 3088 ft 220 kts 200°
2026-04-22 16:42 40.03478 4.25519 2930 ft 213 kts 194°
2026-04-22 16:42 40.02081 4.25121 2852 ft 199 kts 191°
2026-04-22 16:43 40.00754 4.24823 2721 ft 191 kts 189°
2026-04-22 16:43 39.99466 4.24564 2559 ft 181 kts 189°
2026-04-22 16:43 39.98280 4.24328 2426 ft 168 kts 189°
2026-04-22 16:43 39.97116 4.24093 2241 ft 168 kts 189°
2026-04-22 16:44 39.95970 4.23858 2014 ft 166 kts 189°
2026-04-22 16:44 39.94832 4.23625 1784 ft 162 kts 189°
2026-04-22 16:44 39.93765 4.23405 1556 ft 151 kts 188°
2026-04-22 16:44 39.92765 4.23200 1354 ft 138 kts 188°
2026-04-22 16:45 39.91828 4.23008 1191 ft 136 kts 189°
2026-04-22 16:45 39.90894 4.22816 1029 ft 135 kts 189°
2026-04-22 16:45 39.89964 4.22625 861 ft 134 kts 188°
2026-04-22 16:45 39.89043 4.22437 685 ft 134 kts 189°
2026-04-22 16:46 39.88126 4.22254 504 ft 133 kts 189°
2026-04-22 16:46 39.87224 4.22070 312 ft 131 kts 189°
2026-04-22 16:46 39.86438 4.21907 295 ft 70 kts 191°
2026-04-22 16:46 39.86117 4.21837 293 ft 31 kts 189°
2026-04-22 16:47 39.85902 4.21793 291 ft 31 kts 189°
2026-04-22 16:47 39.85690 4.21754 286 ft 30 kts 181°
2026-04-22 16:47 39.85556 4.21776 281 ft 27 kts 167°
2026-04-22 16:47 39.85401 4.21889 273 ft 14 kts 83°
2026-04-22 16:48 39.85485 4.21946 275 ft 13 kts 11°
2026-04-22 16:48 39.85602 4.21967 280 ft 20 kts
2026-04-22 16:48 39.85731 4.21993 285 ft 17 kts
2026-04-22 16:48 39.85845 4.22015 287 ft 16 kts
2026-04-22 16:49 39.85965 4.22043 287 ft 19 kts 11°
2026-04-22 16:49 39.86103 4.22070 284 ft 19 kts
2026-04-22 16:49 39.86186 4.22109 282 ft 8 kts 64°
2026-04-22 16:49 39.86181 4.22213 277 ft 12 kts 92°
2026-04-22 16:50 39.86263 4.22276 269 ft 18 kts
2026-04-22 16:50 39.86365 4.22292 263 ft 7 kts
2026-04-22 16:50 39.86379 4.22325 263 ft 5 kts 98°
2026-04-22 16:50 39.86375 4.22359 264 ft 2 kts 98°
2026-04-22 16:51 39.86372 4.22380 265 ft 1 kts 98°
2026-04-22 16:51 39.86371 4.22393 266 ft 0 kts 98°